| time (UTC) | temp F | wind direction | speed knots | gust knots | rain 1hr in | rain 24hr in | rain mn in | humidity % | barometer mb |
| 20260904054600 | 51 | 160 | 0.0 | 0.0 | 0.00 | 0.04 | 0.04 | 73 | 1008.1 |
| 20260904053107 | 51 | 161 | 0.0 | 0.9 | 0.00 | 0.04 | 0.04 | 73 | 1008.5 |
| 20260904051602 | 50 | 160 | 0.0 | 0.0 | 0.00 | 0.04 | 0.04 | 76 | 1009.1 |
| 20260904050106 | 51 | 160 | 0.0 | 0.0 | 0.00 | 0.04 | 0.04 | 75 | 1009.6 |
| 20260904044608 | 51 | 160 | 0.0 | 0.9 | 0.00 | 0.04 | 0.04 | 74 | 1009.4 |
| 20260904043101 | 51 | 160 | 0.0 | 0.9 | 0.00 | 0.04 | 0.04 | 73 | 1009.4 |
| 20260904041556 | 51 | 160 | 0.0 | 1.7 | 0.00 | 0.04 | 0.04 | 73 | 1009.7 |
| 20260904040056 | 52 | 160 | 0.9 | 4.3 | 0.00 | 0.04 | 0.04 | 68 | 1009.9 |
| 20260904034554 | 52 | 160 | 1.7 | 4.3 | 0.00 | 0.04 | 0.04 | 66 | 1010.0 |
| 20260904033059 | 52 | 160 | 2.6 | 4.3 | 0.00 | 0.04 | 0.04 | 68 | 1010.3 |
| 20260904031604 | 52 | 160 | 0.9 | 3.5 | 0.00 | 0.04 | 0.04 | 67 | 1010.2 |
| 20260904030053 | 51 | 160 | 0.0 | 2.6 | 0.00 | 0.04 | 0.04 | 71 | 1010.3 |
| 20260904024552 | 52 | 160 | 1.7 | 4.3 | 0.00 | 0.04 | 0.04 | 67 | 1010.1 |
| 20260904023053 | 54 | 160 | 1.7 | 4.3 | 0.00 | 0.04 | 0.04 | 63 | 1010.2 |
| 20260904021553 | 54 | 160 | 0.0 | 1.7 | 0.00 | 0.04 | 0.04 | 62 | 1009.8 |
| 20260904020050 | 55 | 161 | 0.0 | 0.0 | 0.00 | 0.04 | 0.04 | 63 | 1009.7 |
| 20260904014550 | 57 | 160 | 0.0 | 0.9 | 0.00 | 0.04 | 0.04 | 60 | 1009.6 |
| 20260904013049 | 60 | 160 | 0.0 | 1.7 | 0.00 | 0.04 | 0.04 | 52 | 1009.7 |
| 20260904011548 | 62 | 160 | 0.0 | 1.7 | 0.00 | 0.04 | 0.04 | 46 | 1009.8 |
| 20260904010051 | 62 | 160 | 0.0 | 3.5 | 0.00 | 0.04 | 0.04 | 44 | 1010.0 |
| 20260904004548 | 64 | 161 | 1.7 | 5.2 | 0.00 | 0.04 | 0.04 | 41 | 1010.1 |
| 20260904003047 | 65 | 160 | 0.9 | 3.5 | 0.00 | 0.04 | 0.04 | 40 | 1010.1 |
| 20260904001546 | 66 | 160 | 1.7 | 7.8 | 0.00 | 0.04 | 0.04 | 41 | 1010.1 |
| 20260904000044 | 66 | 160 | 2.6 | 4.3 | 0.00 | 0.04 | 0.04 | 41 | 1010.2 |
| 20260903234540 | 66 | 160 | 0.0 | 4.3 | 0.00 | 0.04 | 0.04 | 45 | 1010.3 |
| 20260903233044 | 64 | 160 | 0.9 | 5.2 | 0.00 | 0.04 | 0.04 | 46 | 1010.3 |
| 20260903231539 | 66 | 160 | 0.9 | 5.2 | 0.00 | 0.04 | 0.04 | 45 | 1010.4 |
| 20260903230039 | 65 | 160 | 1.7 | 5.2 | 0.00 | 0.04 | 0.04 | 49 | 1010.6 |
| 20260903224541 | 63 | 160 | 1.7 | 6.1 | 0.00 | 0.04 | 0.04 | 50 | 1010.2 |
| 20260903223038 | 64 | 160 | 2.6 | 5.2 | 0.00 | 0.04 | 0.04 | 50 | 1010.0 |
| 20260903221546 | 64 | 160 | 1.7 | 6.1 | 0.00 | 0.04 | 0.04 | 51 | 1010.1 |
| 20260903220036 | 64 | 160 | 3.5 | 7.0 | 0.00 | 0.04 | 0.04 | 50 | 1010.0 |
| 20260903214535 | 66 | 160 | 2.6 | 6.1 | 0.00 | 0.04 | 0.04 | 52 | 1010.3 |
| 20260903213035 | 66 | 160 | 2.6 | 13.9 | 0.00 | 0.04 | 0.04 | 51 | 1010.2 |
| 20260903211532 | 65 | 160 | 0.9 | 7.8 | 0.00 | 0.04 | 0.04 | 46 | 1010.2 |
| 20260903210030 | 65 | 160 | 0.0 | 6.1 | 0.00 | 0.04 | 0.04 | 53 | 1010.2 |
| 20260903204529 | 63 | 160 | 2.6 | 7.8 | 0.00 | 0.04 | 0.04 | 55 | 1010.1 |
| 20260903203044 | 64 | 161 | 2.6 | 8.7 | 0.00 | 0.04 | 0.04 | 55 | 1010.1 |
| 20260903201528 | 64 | 160 | 0.0 | 3.5 | 0.00 | 0.04 | 0.04 | 53 | 1010.3 |
| 20260903200039 | 62 | 161 | 0.9 | 3.5 | 0.00 | 0.04 | 0.04 | 58 | 1010.4 |
| 20260903194537 | 62 | 160 | 0.9 | 2.6 | 0.00 | 0.21 | 0.04 | 63 | 1010.4 |
| 20260903193033 | 61 | 160 | 0.9 | 3.5 | 0.00 | 0.21 | 0.04 | 61 | 1010.7 |
| 20260903191523 | 60 | 160 | 2.6 | 6.1 | 0.00 | 0.21 | 0.04 | 63 | 1010.7 |
| 20260903190023 | 61 | 160 | 1.7 | 9.6 | 0.00 | 0.21 | 0.04 | 56 | 1010.4 |
| 20260903184520 | 61 | 161 | 0.9 | 9.6 | 0.00 | 0.21 | 0.04 | 60 | 1010.5 |
| 20260903183021 | 63 | 161 | 1.7 | 6.1 | 0.00 | 0.21 | 0.04 | 53 | 1010.2 |
| 20260903181517 | 63 | 161 | 0.9 | 5.2 | 0.00 | 0.21 | 0.04 | 65 | 1010.0 |
| 20260903180030 | 63 | 161 | 0.9 | 4.3 | 0.00 | 0.21 | 0.04 | 58 | 1009.9 |
| 20260903174513 | 61 | 161 | 0.0 | 5.2 | 0.00 | 0.21 | 0.04 | 66 | 1009.9 |
| 20260903173010 | 61 | 160 | 1.7 | 3.5 | 0.00 | 0.21 | 0.04 | 69 | 1010.0 |
| 20260903171507 | 60 | 161 | 0.0 | 2.6 | 0.00 | 0.21 | 0.04 | 78 | 1009.9 |
| 20260903170004 | 60 | 161 | 0.9 | 4.3 | 0.00 | 0.21 | 0.04 | 81 | 1009.9 |
| 20260903164501 | 57 | 161 | 0.0 | 0.9 | 0.00 | 0.21 | 0.04 | 82 | 1009.9 |
| 20260903163056 | 56 | 161 | 0.0 | 1.7 | 0.00 | 0.21 | 0.04 | 87 | 1009.8 |
| 20260903161554 | 55 | 161 | 0.0 | 1.7 | 0.00 | 0.21 | 0.04 | 91 | 1009.8 |
| 20260903160050 | 54 | 161 | 0.9 | 2.6 | 0.00 | 0.21 | 0.04 | 92 | 1009.8 |
| 20260903154547 | 53 | 161 | 0.0 | 1.7 | 0.00 | 0.21 | 0.04 | 94 | 1009.7 |
| 20260903153045 | 52 | 161 | 0.0 | 0.9 | 0.00 | 0.21 | 0.04 | 96 | 1009.4 |
| 20260903151542 | 51 | 161 | 0.0 | 2.6 | 0.00 | 0.21 | 0.04 | 95 | 1009.6 |
| 20260903150038 | 51 | 161 | 0.0 | 0.9 | 0.00 | 0.21 | 0.04 | 95 | 1009.5 |
| 20260903144539 | 51 | 161 | 0.0 | 0.9 | 0.00 | 0.21 | 0.04 | 95 | 1009.4 |
| 20260903143036 | 51 | 161 | 0.0 | 0.0 | 0.00 | 0.21 | 0.04 | 96 | 1009.3 |
| 20260903141534 | 51 | 161 | 0.0 | 0.0 | 0.00 | 0.21 | 0.04 | 96 | 1009.1 |
| 20260903140031 | 51 | 160 | 0.0 | 0.0 | 0.00 | 0.21 | 0.04 | 96 | 1008.9 |
| 20260903134530 | 51 | 161 | 0.0 | 1.7 | 0.00 | 0.21 | 0.04 | 96 | 1008.9 |
| 20260903133030 | 51 | 161 | 0.0 | 1.7 | 0.00 | 0.21 | 0.04 | 96 | 1008.7 |
| 20260903131530 | 50 | 161 | 0.0 | 0.0 | 0.00 | 0.21 | 0.04 | 96 | 1008.5 |
| 20260903130030 | 50 | 161 | 0.0 | 0.0 | 0.00 | 0.21 | 0.04 | 96 | 1008.5 |
| 20260903124527 | 50 | 161 | 0.0 | 0.0 | 0.00 | 0.21 | 0.04 | 95 | 1008.5 |
| 20260903123027 | 50 | 161 | 0.0 | 0.0 | 0.01 | 0.21 | 0.04 | 95 | 1008.1 |
| 20260903121526 | 51 | 161 | 0.0 | 0.0 | 0.01 | 0.21 | 0.04 | 95 | 1008.1 |
| 20260903120029 | 51 | 161 | 0.0 | 0.9 | 0.01 | 0.21 | 0.04 | 95 | 1008.3 |
| 20260903114525 | 51 | 161 | 0.0 | 0.0 | 0.01 | 0.21 | 0.04 | 95 | 1008.4 |
| 20260903113033 | 50 | 161 | 0.0 | 0.9 | 0.00 | 0.20 | 0.03 | 95 | 1008.6 |
| 20260903111523 | 51 | 161 | 0.0 | 0.0 | 0.00 | 0.20 | 0.03 | 95 | 1008.3 |
| 20260903110051 | 51 | 161 | 0.0 | 0.0 | 0.00 | 0.20 | 0.03 | 95 | 1008.2 |
| 20260903104522 | 51 | 161 | 0.0 | 0.0 | 0.00 | 0.20 | 0.03 | 95 | 1008.3 |
| 20260903103023 | 51 | 161 | 0.0 | 0.0 | 0.00 | 0.20 | 0.03 | 95 | 1008.1 |
| 20260903101519 | 50 | 161 | 0.0 | 0.9 | 0.00 | 0.20 | 0.03 | 96 | 1007.9 |
| 20260903100023 | 50 | 161 | 0.0 | 1.7 | 0.00 | 0.20 | 0.03 | 95 | 1007.8 |
| 20260903094542 | 50 | 161 | 0.0 | 1.7 | 0.00 | 0.20 | 0.03 | 95 | 1007.7 |
| 20260903093018 | 50 | 160 | 0.0 | 0.0 | 0.00 | 0.20 | 0.03 | 95 | 1007.7 |
| 20260903091521 | 50 | 161 | 0.0 | 0.0 | 0.00 | 0.20 | 0.03 | 94 | 1007.6 |
| 20260903090017 | 50 | 161 | 0.0 | 0.9 | 0.00 | 0.20 | 0.03 | 94 | 1007.7 |
| 20260903084516 | 51 | 161 | 0.0 | 0.0 | 0.00 | 0.20 | 0.03 | 94 | 1007.8 |
| 20260903083015 | 51 | 161 | 0.0 | 0.9 | 0.01 | 0.20 | 0.03 | 94 | 1008.0 |
| 20260903081518 | 51 | 161 | 0.0 | 0.9 | 0.01 | 0.20 | 0.03 | 94 | 1008.1 |
| 20260903080014 | 51 | 161 | 0.0 | 0.9 | 0.02 | 0.20 | 0.03 | 93 | 1007.9 |
| 20260903074512 | 51 | 160 | 0.0 | 1.7 | 0.03 | 0.20 | 0.03 | 94 | 1007.7 |
| 20260903073012 | 51 | 161 | 0.0 | 0.9 | 0.02 | 0.19 | 0.02 | 93 | 1008.1 |
| 20260903071510 | 51 | 161 | 0.0 | 0.0 | 0.02 | 0.19 | 0.02 | 93 | 1008.0 |
| 20260903070008 | 50 | 161 | 0.0 | 0.0 | 0.01 | 0.18 | 0.01 | 93 | 1007.8 |
| 20260903064509 | 50 | 161 | 0.0 | 0.9 | 0.00 | 0.17 | 0.00 | 92 | 1007.8 |
| 20260903063007 | 50 | 161 | 0.0 | 0.9 | 0.00 | 0.17 | 0.00 | 92 | 1007.6 |
| 20260903061504 | 50 | 161 | 0.9 | 3.5 | 0.00 | 0.17 | 0.00 | 92 | 1007.5 |
| 20260903060100 | 49 | 161 | 0.0 | 0.9 | 0.00 | 0.17 | 0.00 | 94 | 1007.6 |